Knoxville, TN

1:00 PM EST on February 09, 2016 (GMT -0500)
Suburban Hills | | Change Station
CLOSE
Current Station
Personal Weather Station
Location: Knoxville, TN
Elevation: 1020 ft
Nearby Weather Stations
Active Advisory: Winter Weather Advisory

Elev 1020 ft 35.92 °N, 84.07 °W | Updated 1 minute ago

Overcast
Overcast
26.4 °F
Feels Like 26 °F
N
2.7
Wind Variable Wind from WNW

Today
High -- | Low -- °F
--% Chance of Precip.
Yesterday
High -- | Low -- °F
Precip. -- in
Pressure 29.85 in
Visibility 7.0 miles
Clouds Scattered Clouds 2800 ft
Overcast 3900 ft
Windchill 26 °F
Dew Point 20 °F
Humidity 77%
Rainfall 0.00 in
Snow Depth Not available.
7:30 AM 6:11 PM
New Moon, 2% visible
METAR KTYS 091753Z 25009KT 7SM -SN SCT028 OVC039 M02/M08 A2983 RMK AO2 SLP107 P0000 60000 T10221083 11022 21039 58006
Pressure 29.85 in
Visibility 7.0 miles
Clouds Scattered Clouds 2800 ft
Overcast 3900 ft
Windchill 26 °F
Dew Point 20 °F
Humidity 77%
Rainfall 0.00 in
Snow Depth Not available.
7:30 AM 6:11 PM
New Moon, 2% visible
METAR KTYS 091753Z 25009KT 7SM -SN SCT028 OVC039 M02/M08 A2983 RMK AO2 SLP107 P0000 60000 T10221083 11022 21039 58006

10-Day Weather Forecast

Almanac

Astronomy

Feb. 09, 2016 Rise Set
Actual Time
Civil Twilight
Nautical Twilight
Astronomical Twilight
Moon
Length of Visible Light
Length of Day
Tomorrow will be .
, % of the Moon is Illuminated

Today's Extremes

State Highs State Lows

Community

WunderPhotos

Upload Photos

1,891,650 photos uploaded!

WunderBlog® & News

Nearby

Air Quality

  Air Quality AQ Index Pollutant
Not available.

Snow Depth

Station Depth Elevation

Earthquake Activity

City Distance Mag. Time & Date
Minimum magnitude displayed is 2.5.

Coastal Water Temperatures

Place Temperature

Stations

Nearby Weather Stations

Station Location Temp. Windchill Dew Point Humidity Wind Precip. Elev Updated Type
                   

Watches & Warnings

Winter Weather Advisory
Issued: 10:18 AM EST Feb. 9, 2016 – National Weather Service

... Winter Weather Advisory remains in effect until 7 am EST
Wednesday...

* event... a series of upper-level disturbances will sweep across
the area over the next couple of days and nights... bringing
several periods of snow showers to the region. During the
event snowfall amounts will range from 1 to 2 inches over that
period of time... with a few locally higher amounts possible in
the higher elevations.

* Timing... today through early Wednesday morning.

* Impacts... the snow could cause hazardous driving conditions...
especially on secondary roads.

Precautionary/preparedness actions...

A Winter Weather Advisory for snow means that periods of snow are
expected or occurring... but accumulations are expected to be
light. Driving and walking may be difficult on untreated
roadways and sidewalks. Be prepared for snow covered roads and
limited visibilities. If you must travel... slow down and allow
extra time to reach your destination.